www.pogodaiklimat.ru

Погода и климат >> Архив погоды >> Нигер >> Агадес


ПОГОДА в Агадесе

  • Прогноз погоды в Агадесе
  • Монитор погоды в Агадесе

АРХИВ ПОГОДЫ в Агадесе

Время (UTC), дата Ветер
(напр.,м/с)
 
Видим.   Явления Облачность Т
(С)
Тd
(С)
f
(%)
Тe
(С)
Тes
(С)
Комфортность P
(гПа)
Po
(гПа)
Тmin
(С)
Tmax
(С)
R
(мм)
R24
(мм)
S
(см)
12 12.09 З 12 10 км 6/1 900 м
[Cu hum Ci sp]
+37.0 +20.4 38 +43 +43 опасность
перегрева
1010.5 956.2
15 12.09 С 6 10 км гроза без осадков 6/4 700 м
[Cb cap Ci sp]
+38.1 +16.0 27 +40 +42 очень
душно
1007.9 953.7
18 12.09 СВ 8 10 км {гроза} 9/3 1200 м
[Cb cap Cs]
+34.2 +16.2 34 +37 +37 очень
душно
1008.8 954.1 +39.5
03 13.09 СВ 4 10 км 6/0
[Ci sp]
+29.5 +18.1 50 +34 +34 очень
душно
1009.4 955.1
06 13.09 С 6 10 км 9/0
[Cs]
+28.4 +17.5 52 +33 +33 очень
душно
1010.5 955.7 +27.8
09 13.09 З 12 10 км 6/0
[Ci sp]
+33.0 +20.1 47 +39 +39 очень
душно
1012.1 957.5
12 13.09 С 6 10 км 6/1 1200 м
[Cu med, cong Ci sp]
+38.6 +16.6 28 +41 +47 опасность
перегрева
1009.1 955.0
15 13.09 В 19 10 км 9/0
[Ac cast Ci sp]
+40.0 +6.1 13 +37 +37 очень
жарко
1007.2 953.2
18 13.09 СВ 12 10 км 9/0
[Ac cast Cs]
+36.8 +8.0 17 +35 +35 очень
жарко
1008.1 953.7 +41.1
06 14.09 СВ 16 10 км 8/0
[Cs]
+31.5 +9.0 25 +31 +31 жарко 1010.1 955.8 +31.4
09 14.09 В 24 3500 м пыльный позёмок 6/0
[Ci sp]
+37.2 +3.4 12 +34 +34 очень
жарко
1010.8 956.7
12 14.09 СВ 20 4200 м пыльный позёмок 9/0
[Cs]
+39.7 +5.0 12 +37 +37 очень
жарко
1008.6 954.6
15 14.09 В 14 4000 м пыль 9/0
[Cs]
+39.5 +6.7 14 +37 +37 очень
жарко
1006.3 952.4
18 14.09 В 10 4000 м пыль 9/0
[Cs]
+35.8 +9.0 20 +34 +34 очень
жарко
1006.8 952.7 +41.0
06 15.09 В 8 4500 м пыль 9/0
[Cs]
+27.3 +12.7 40 +29 +29 жарко 1010.8 956.1 +27.3
09 15.09 ЮВ 8 10 км 9/1 900 м
[Cu hum Cs]
+32.4 +18.3 43 +37 +39 очень
душно
1012.1 957.4
12 15.09 ЮВ 10 10 км 9/1 900 м
[Cu hum Cs]
+37.0 +14.3 26 +38 +39 душно 1009.8 955.6
15 15.09 ЮВ 17 10 км 9/1 900 м
[Cu hum Cs]
+38.0 +11.1 20 +37 +37 очень
жарко
1007.5 953.3
18 15.09 ЮВ 10 10 км 9/1 1200 м
[Cb cap Cs]
+34.6 +11.7 25 +34 +34 очень
жарко
1008.0 953.3 +38.9
06 16.09 С 6 10 км 4/0
[Ci sp]
+27.0 +19.5 64 +33 +33 очень
душно
1010.0 955.2 +26.8
09 16.09 штиль 0 10 км 4/0
[Ci sp]
+32.9 +19.8 46 +39 +55 опасность
солнечного
удара
1011.4 956.7
12 16.09 В 8 10 км 4/0
[Ac trans Ci sp]
+37.0 +13.2 24 +37 +40 очень
жарко
1009.2 954.7
15 16.09 В 6 10 км 9/0
[Ac cast Ci sp]
+38.5 +13.3 22 +38 +40 очень
жарко
1006.9 952.6
18 16.09 С 6 10 км 9/0
[Ac cast Ci sp]
+35.5 +12.9 26 +36 +36 очень
жарко
1007.2 952.6 +39.5
06 17.09 Ю 4 10 км 8/0
[Cs]
+26.0 +21.5 76 +33 +33 очень
душно
1010.1 955.3 +25.9
09 17.09 ЮВ 4 10 км 6/0
[Ci sp]
+33.3 +16.8 37 +36 +44 очень
душно
1011.1 956.6
12 17.09 В 4 10 км 6/0
[Ci sp]
+36.5 +14.9 28 +38 +50 очень
душно
1009.3 955.0
15 17.09 штиль 0 10 км 8/0
[Ac trans Cs]
+37.8 +12.6 22 +37 +45 очень
жарко
1007.4 953.0
18 17.09 В 2 10 км 8/0
[Cs]
+35.4 +14.4 28 +36 +36 очень
жарко
1007.4 952.7 +39.0
06 18.09 В 5 10 км 9/0
[Cs]
+26.5 +11.1 38 +27 +28 жарко 1010.0 955.2 +26.5
09 18.09 В 12 5000 м пыль 9/0
[Cs]
+35.8 +7.8 18 +34 +34 очень
жарко
1010.4 956.2
12 18.09 Ю 6 4200 м пыль 9/0
[Cs]
+37.3 +10.4 20 +36 +43 очень
жарко
1009.7 955.3
15 18.09 ЮВ 8 4500 м пыль 9/0
[Cs]
+38.0 +8.6 17 +36 +37 очень
жарко
1007.6 953.2
18 18.09 ЮВ 6 4000 м пыль 9/0
[Cs]
+36.0 +9.7 20 +35 +35 очень
жарко
1008.0 953.4 +39.8
06 19.09 ЮВ 4 10 км 6/0
[Ci sp]
+27.2 +9.3 32 +27 +28 жарко 1009.5 954.8 +26.2
09 19.09 В 19 10 км пыльный позёмок 8/0
[Cs]
+35.1 +7.9 19 +33 +33 жарко 1011.2 956.7

 

Местоположение метеостанции Агадес (Нигер): широта 16.97 долгота 7.97 высота над уровнем моря 502 м.

В архиве по умолчанию представлена погода в Агадесе за последнюю неделю. Архивные данные за месяц целиком и за предыдущие месяцы, начиная с января 2011 года, Вы можете получить, выбрав интересующий диапазон дат из раскрывающегося списка и нажав кнопку "Ввод!".


*Определитесь, кто Вы:
робот инопланетянин человек

Внимание! Время в таблицах - всемирное. Для получения местного времени необходимо прибавить поправку, которая равна 1 ч.

Смотрите также архив погоды в соседних городах и на ближайших метеорологических станциях:

Погода в Зиндере (Нигер) (371 км)
Погода в Тахве (Нигер) (371 км)
Погода в Ин-Геззаме (Алжир) (372 км)
Погода в Ин-Геззам аэропорту (Алжир) (372 км)
Погода в Маради (Нигер) (401 км)
Погода в Гуре (Нигер) (416 км)
Погода в Кацине (Нигерия) (440 км)
Погода в Анебарака (Алжир) (445 км)
Погода в Магарьа (Нигер) (456 км)
Погода в Вирнин-Конни (Нигер) (458 км)

Пояснения к столбцам:

Ветер - указаны скорость ветра в м/с - средняя за 10 мин, порывы в срок и между сроками (в фигурных скобках) и направление, откуда дует ветер: С - северный, СВ - северо-восточный, В - восточный, ЮВ - юго-восточный, Ю - южный, ЮЗ - юго-западный, З - западный, СЗ - северо-западный.
Видимость - горизонтальная дальность видимости в метрах или километрах. При видимости от 1 до 10 км при отсутствии осадков обычно наблюдается дымка, при ухудшении видимости до 1 км и менее - туман. В сухую погоду видимость может ухудшаться дымом, пылью или мглою.
Явления - указаны атмосферные явления, наблюдавшиеся в срок или в последний час перед сроком; фигурными скобками обозначены явления, наблюдавшиеся между сроками (за 1-3 часа до срока); квадратными скобками обозначены град или гололедные отложения с указанием их диаметра в мм.
Облачность - указаны через наклонную черту общая и нижняя облачность в баллах и высота нижней границы облаков в метрах; квадратными скобками обозначены формы облаков: Ci - перистые, Cs - перисто-слоистые, Cc - перисто-кучевые, Ac - высококучевые, As - высокослоистые, Sc - слоисто-кучевые, Ns - слоисто-дождевые, Cu - кучевые, Cb - кучево-дождевые. Подробнее классификацию облаков см. в Атласе облаков (PDF).
T - Температура воздуха - температура, измеренная на высоте 2 м над землей.
Td - Температура точки росы - температура, при понижении до которой содержащийся в воздухе водяной пар достигнет насыщения.
f - Относительная влажность воздуха - влажноcть воздуха, измеренная на высоте 2 м над землей.
Te - Эффективная температура - температура, которую ощущает одетый по сезону человек в тени. Характеристика душности погоды. При расчете учитывается влияние влажности воздуха и скорости ветра на теплоощущения человека.
Tes - Эффективная температура на солнце - температура, которую ощущает человек, с поправкой на солнечный нагрев. Характеристика знойности погоды. Зависит от высоты солнца над горизонтом, облачности и скорости ветра. Ночью, в пасмурную погоду, а также при ветре 12 м/с и более поправка равна нулю.
P - Атмосферное давление - приведенное к уровню моря атмосферное давление.
Po - Атмосферное давление - измеренное на уровне метеостанции атмосферное давление.
Tmin - Минимальная температура - минимум температуры воздуха на высоте 2 м над землей.
Tmax - Максимальная температура - максимум температуры воздуха на высоте 2 м над землей.
R - Количество осадков - Количество выпавших осадков за период времени, мм. При наведении курсора мыши на число - период времени, за который выпало указанное количество осадков.
R24 - Количество осадков - Количество выпавших осадков за 24 часа, мм.
S - Снежный покров - Высота снежного покрова, см. При наведении курсора мыши на число - состояние снежного покрова и степень покрытия местности в баллах.